• In Hungary
  • List of Countries
  • For 7 days
  • Water Temperature
  • Satellite Maps
  • Weather Map
  • News
  • Weather Widgets
  • user-avatar
    Login

    Hourly Weather Podlopatki

    Today, 20 October, Friday

    Time Temperature Precipitation Wind Pressure Humidity
    00:00 +2°C° 0 mm 1 mps 716 mmHg 89%
    01:00 +1°C° 0 mm 1 mps 716 mmHg 90%
    02:00 +1°C° 0 mm 1 mps 716 mmHg 90%
    03:00 +1°C° 0 mm 1 mps 716 mmHg 90%
    04:00 +1°C° 0 mm 1 mps 716 mmHg 90%
    05:00 +1°C° 0 mm 1 mps 717 mmHg 90%
    06:00 0°C° 0 mm 0 mps 717 mmHg 90%
    07:00 0°C° 0 mm 0 mps 717 mmHg 90%
    08:00 +2°C° 0 mm 0 mps 717 mmHg 81%
    09:00 +5°C° 0 mm 1 mps 717 mmHg 71%
    10:00 +7°C° 0 mm 1 mps 717 mmHg 62%
    11:00 +8°C° 0 mm 1 mps 717 mmHg 58%
    12:00 +9°C° 0 mm 1 mps 716 mmHg 54%
    13:00 +10°C° 0 mm 1 mps 716 mmHg 51%
    14:00 +9°C° 0 mm 1 mps 716 mmHg 54%
    15:00 +8°C° 0 mm 1 mps 716 mmHg 57%
    16:00 +8°C° 0 mm 1 mps 715 mmHg 60%
    17:00 +6°C° 0 mm 1 mps 715 mmHg 64%
    18:00 +5°C° 0 mm 1 mps 715 mmHg 68%
    19:00 +4°C° 0 mm 1 mps 716 mmHg 72%
    20:00 +3°C° 0 mm 1 mps 715 mmHg 73%
    21:00 +3°C° 0 mm 1 mps 715 mmHg 73%
    22:00 +2°C° 0 mm 1 mps 715 mmHg 74%
    23:00 +2°C° 0 mm 1 mps 715 mmHg 73%

    Tomorrow, 21 October, Saturday

    Time Temperature Precipitation Wind Pressure Humidity
    00:00 +2°C° 0 mm 1 mps 715 mmHg 73%
    01:00 +2°C° 0 mm 1 mps 715 mmHg 73%
    02:00 +2°C° 0 mm 1 mps 715 mmHg 72%
    03:00 +2°C° 0 mm 1 mps 715 mmHg 71%
    04:00 +2°C° 0 mm 1 mps 715 mmHg 71%
    05:00 +2°C° 0.1 mm 1 mps 715 mmHg 70%
    06:00 +2°C° 0.1 mm 1 mps 715 mmHg 70%
    07:00 +3°C° 0.1 mm 1 mps 716 mmHg 70%
    08:00 +3°C° 0.1 mm 1 mps 716 mmHg 70%
    09:00 +4°C° 0.1 mm 1 mps 716 mmHg 69%
    10:00 +3°C° 0.1 mm 0 mps 716 mmHg 69%
    11:00 +5°C° 0.1 mm 1 mps 716 mmHg 68%
    12:00 +6°C° 0.1 mm 1 mps 716 mmHg 67%
    13:00 +7°C° 0.1 mm 1 mps 716 mmHg 66%
    14:00 +7°C° 0 mm 1 mps 716 mmHg 69%
    15:00 +7°C° 0 mm 1 mps 716 mmHg 72%
    16:00 +6°C° 0 mm 1 mps 716 mmHg 75%
    17:00 +5°C° 0 mm 1 mps 717 mmHg 79%
    18:00 +4°C° 0 mm 1 mps 717 mmHg 83%
    19:00 +3°C° 0 mm 1 mps 717 mmHg 88%
    20:00 +3°C° 0 mm 1 mps 718 mmHg 88%
    21:00 +2°C° 0 mm 1 mps 718 mmHg 89%
    22:00 +2°C° 0 mm 1 mps 718 mmHg 90%
    23:00 +2°C° 0 mm 1 mps 718 mmHg 91%

    Day after tomorrow, 22 October, Sunday

    Time Temperature Precipitation Wind Pressure Humidity
    00:00 +2°C° 0 mm 1 mps 718 mmHg 91%
    01:00 +1°C° 0 mm 1 mps 718 mmHg 91%
    02:00 -1°C° 0 mm 2 mps 718 mmHg 92%
    03:00 -1°C° 0 mm 2 mps 718 mmHg 92%
    04:00 -1°C° 0 mm 2 mps 718 mmHg 92%
    05:00 -1°C° 0 mm 2 mps 718 mmHg 91%
    06:00 -1°C° 0 mm 2 mps 718 mmHg 91%
    07:00 -1°C° 0 mm 2 mps 718 mmHg 90%
    08:00 +3°C° 0 mm 2 mps 718 mmHg 81%
    09:00 +5°C° 0 mm 2 mps 718 mmHg 72%
    10:00 +7°C° 0 mm 3 mps 717 mmHg 62%
    11:00 +8°C° 0 mm 3 mps 717 mmHg 57%
    12:00 +8°C° 0 mm 4 mps 716 mmHg 53%
    13:00 +11°C° 0 mm 4 mps 716 mmHg 48%
    14:00 +10°C° 0 mm 3 mps 715 mmHg 52%
    15:00 +9°C° 0 mm 3 mps 715 mmHg 56%
    16:00 +8°C° 0 mm 2 mps 715 mmHg 60%
    17:00 +7°C° 0 mm 2 mps 715 mmHg 65%
    18:00 +5°C° 0 mm 2 mps 715 mmHg 70%
    19:00 +4°C° 0 mm 2 mps 715 mmHg 75%
    20:00 +3°C° 0 mm 2 mps 715 mmHg 75%
    21:00 +3°C° 0 mm 2 mps 715 mmHg 76%
    22:00 +2°C° 0 mm 2 mps 715 mmHg 77%
    23:00 +2°C° 0 mm 2 mps 715 mmHg 77%

    23 October, Monday

    Time Temperature Precipitation Wind Pressure Humidity
    00:00 +2°C° 0 mm 2 mps 714 mmHg 76%
    01:00 +2°C° 0 mm 2 mps 714 mmHg 76%
    02:00 +2°C° 0 mm 2 mps 714 mmHg 75%
    03:00 +2°C° 0 mm 2 mps 714 mmHg 75%
    04:00 +1°C° 0 mm 2 mps 714 mmHg 74%
    05:00 +1°C° 0 mm 2 mps 713 mmHg 74%
    06:00 +1°C° 0 mm 2 mps 713 mmHg 73%
    07:00 +1°C° 0 mm 2 mps 713 mmHg 73%
    08:00 +3°C° 0 mm 2 mps 713 mmHg 65%
    09:00 +5°C° 0 mm 2 mps 713 mmHg 57%
    10:00 +8°C° 0 mm 3 mps 713 mmHg 49%
    11:00 +9°C° 0 mm 3 mps 713 mmHg 47%
    12:00 +10°C° 0 mm 3 mps 712 mmHg 45%
    13:00 +11°C° 0 mm 3 mps 712 mmHg 44%
    14:00 +10°C° 0 mm 2 mps 712 mmHg 49%
    15:00 +9°C° 0 mm 2 mps 712 mmHg 54%
    16:00 +9°C° 0 mm 1 mps 713 mmHg 58%
    17:00 +7°C° 0 mm 1 mps 713 mmHg 63%
    18:00 +6°C° 0 mm 1 mps 714 mmHg 68%
    19:00 +4°C° 0 mm 1 mps 714 mmHg 73%
    20:00 +4°C° 0 mm 1 mps 715 mmHg 74%
    21:00 +4°C° 0 mm 1 mps 715 mmHg 75%
    22:00 +4°C° 0 mm 1 mps 716 mmHg 75%
    23:00 +3°C° 0 mm 1 mps 716 mmHg 76%

    24 October, Tuesday

    Time Temperature Precipitation Wind Pressure Humidity
    00:00 +3°C° 0 mm 1 mps 716 mmHg 77%
    01:00 +3°C° 0 mm 1 mps 717 mmHg 77%
    02:00 +3°C° 0 mm 1 mps 717 mmHg 78%
    03:00 +3°C° 0 mm 1 mps 717 mmHg 79%
    04:00 +2°C° 0 mm 1 mps 717 mmHg 80%
    05:00 +2°C° 0 mm 1 mps 718 mmHg 80%
    06:00 +1°C° 0 mm 0 mps 718 mmHg 80%
    07:00 +1°C° 0 mm 0 mps 718 mmHg 80%
    08:00 +5°C° 0 mm 1 mps 718 mmHg 71%
    09:00 +7°C° 0 mm 1 mps 718 mmHg 62%
    10:00 +9°C° 0 mm 1 mps 718 mmHg 53%
    11:00 +10°C° 0 mm 1 mps 718 mmHg 50%
    12:00 +11°C° 0 mm 1 mps 717 mmHg 47%
    13:00 +12°C° 0 mm 2 mps 717 mmHg 45%
    14:00 +11°C° 0 mm 1 mps 716 mmHg 49%
    15:00 +10°C° 0 mm 1 mps 716 mmHg 54%
    16:00 +9°C° 0 mm 1 mps 716 mmHg 59%
    17:00 +8°C° 0 mm 1 mps 716 mmHg 63%
    18:00 +7°C° 0 mm 1 mps 716 mmHg 67%
    19:00 +6°C° 0 mm 1 mps 716 mmHg 71%
    20:00 +5°C° 0 mm 1 mps 716 mmHg 73%
    21:00 +5°C° 0 mm 1 mps 716 mmHg 74%
    22:00 +3°C° 0 mm 2 mps 716 mmHg 76%
    23:00 +3°C° 0 mm 2 mps 716 mmHg 77%

    25 October, Wednesday

    Time Temperature Precipitation Wind Pressure Humidity
    00:00 +3°C° 0 mm 2 mps 715 mmHg 79%
    01:00 +2°C° 0 mm 2 mps 715 mmHg 80%
    02:00 +2°C° 0 mm 2 mps 715 mmHg 81%
    03:00 +2°C° 0 mm 2 mps 715 mmHg 82%
    04:00 +2°C° 0 mm 1 mps 715 mmHg 83%
    05:00 +2°C° 0 mm 1 mps 714 mmHg 83%
    06:00 +2°C° 0 mm 1 mps 714 mmHg 83%
    07:00 +2°C° 0 mm 1 mps 714 mmHg 83%
    08:00 +3°C° 0 mm 2 mps 714 mmHg 73%
    09:00 +6°C° 0 mm 2 mps 713 mmHg 63%
    10:00 +8°C° 0 mm 2 mps 713 mmHg 53%
    11:00 +9°C° 0 mm 2 mps 712 mmHg 50%
    12:00 +10°C° 0 mm 3 mps 711 mmHg 46%
    13:00 +11°C° 0 mm 3 mps 711 mmHg 43%
    14:00 +10°C° 0 mm 2 mps 710 mmHg 48%
    15:00 +9°C° 0 mm 2 mps 710 mmHg 52%
    16:00 +9°C° 0 mm 1 mps 710 mmHg 57%
    17:00 +8°C° 0 mm 1 mps 710 mmHg 61%
    18:00 +7°C° 0 mm 1 mps 710 mmHg 65%
    19:00 +6°C° 0 mm 1 mps 710 mmHg 69%
    20:00 +5°C° 0 mm 1 mps 710 mmHg 70%
    21:00 +5°C° 0 mm 1 mps 709 mmHg 71%
    22:00 +5°C° 0 mm 1 mps 709 mmHg 72%
    23:00 +4°C° 0 mm 1 mps 709 mmHg 73%
    Show more